Time,TemperatureF,DewpointF,PressureIn,WindDirection,WindDirectionDegrees,WindSpeedMPH,WindSpeedGustMPH,Humidity,HourlyPrecipIn,Conditions,Clouds,dailyrainin,SoftwareType,DateUTC
2013-03-15 00:02:00,17.7,9.9,29.45,NNE,23,7.1,7.1,71,0.00,,,0.00,WUHU216HW,2013-03-15 08:02:00,
2013-03-15 00:07:00,17.7,9.9,29.45,NNE,23,7.6,7.6,71,0.00,,,0.00,WUHU216HW,2013-03-15 08:07:00,
2013-03-15 00:12:00,17.7,9.9,29.45,NE,45,0.8,7.6,71,0.00,,,0.00,WUHU216HW,2013-03-15 08:12:00,
2013-03-15 00:17:00,17.7,9.9,29.45,NNE,23,0.0,7.6,71,0.00,,,0.00,WUHU216HW,2013-03-15 08:17:00,
2013-03-15 00:22:00,17.7,9.9,29.45,NNE,23,6.4,6.4,71,0.00,,,0.00,WUHU216HW,2013-03-15 08:22:00,
2013-03-15 00:27:00,17.7,9.9,29.45,NNE,23,0.6,6.4,71,0.00,,,0.00,WUHU216HW,2013-03-15 08:27:00,
2013-03-15 00:32:00,17.7,9.9,29.45,NNE,23,0.0,6.4,71,0.00,,,0.00,WUHU216HW,2013-03-15 08:32:00,
2013-03-15 00:38:00,17.7,9.9,29.45,NE,45,2.0,2.0,71,0.00,,,0.00,WUHU216HW,2013-03-15 08:38:00,
2013-03-15 00:43:00,17.7,9.9,29.45,NE,45,1.3,2.0,71,0.00,,,0.00,WUHU216HW,2013-03-15 08:43:00,
2013-03-15 00:48:00,17.7,9.9,29.44,North,0,3.3,3.8,71,0.00,,,0.00,WUHU216HW,2013-03-15 08:48:00,
2013-03-15 00:53:00,17.7,9.9,29.45,NNE,23,6.2,6.2,71,0.00,,,0.00,WUHU216HW,2013-03-15 08:53:00,
2013-03-15 00:58:00,17.4,9.3,29.45,NNE,23,0.0,6.2,70,0.00,,,0.00,WUHU216HW,2013-03-15 08:58:00,
2013-03-15 01:03:00,17.4,9.3,29.45,NE,45,0.0,6.2,70,0.00,,,0.00,WUHU216HW,2013-03-15 09:03:00,
2013-03-15 01:08:00,17.2,9.1,29.45,North,0,0.0,4.0,70,0.00,,,0.00,WUHU216HW,2013-03-15 09:08:00,
2013-03-15 01:13:00,17.2,9.4,29.45,NNE,23,0.0,4.0,71,0.00,,,0.00,WUHU216HW,2013-03-15 09:13:00,
2013-03-15 01:18:00,16.8,9.0,29.45,North,0,0.0,1.1,71,0.00,,,0.00,WUHU216HW,2013-03-15 09:18:00,
2013-03-15 01:23:00,16.8,9.0,29.45,NNE,23,0.0,0.0,71,0.00,,,0.00,WUHU216HW,2013-03-15 09:23:00,
2013-03-15 01:28:00,16.8,9.0,29.45,NE,45,0.0,0.0,71,0.00,,,0.00,WUHU216HW,2013-03-15 09:28:00,
2013-03-15 01:33:00,16.7,8.8,29.45,NE,45,0.0,0.0,71,0.00,,,0.00,WUHU216HW,2013-03-15 09:33:00,
2013-03-15 01:38:00,16.5,8.5,29.44,NNE,23,0.0,0.0,71,0.00,,,0.00,WUHU216HW,2013-03-15 09:38:00,
2013-03-15 01:43:00,16.3,8.5,29.44,NNE,23,0.0,0.0,71,0.00,,,0.00,WUHU216HW,2013-03-15 09:43:00,
2013-03-15 01:48:00,16.1,8.3,29.44,NNE,23,0.0,0.0,71,0.00,,,0.00,WUHU216HW,2013-03-15 09:48:00,
2013-03-15 01:53:00,16.1,8.3,29.44,NNE,23,0.0,0.0,71,0.00,,,0.00,WUHU216HW,2013-03-15 09:53:00,
2013-03-15 01:58:00,15.9,8.1,29.44,NNE,23,0.0,0.0,71,0.00,,,0.00,WUHU216HW,2013-03-15 09:58:00,
2013-03-15 02:03:00,15.8,8.0,29.44,NNE,23,0.0,0.0,71,0.00,,,0.00,WUHU216HW,2013-03-15 10:03:00,
2013-03-15 02:08:00,15.6,7.8,29.44,NNE,23,0.0,0.0,71,0.00,,,0.00,WUHU216HW,2013-03-15 10:08:00,
2013-03-15 02:13:00,15.4,7.6,29.44,NE,45,0.0,0.0,71,0.00,,,0.00,WUHU216HW,2013-03-15 10:13:00,
2013-03-15 02:18:00,15.0,7.3,29.44,NE,45,0.0,0.0,71,0.00,,,0.00,WUHU216HW,2013-03-15 10:18:00,
2013-03-15 02:23:00,14.7,7.3,29.44,NE,45,0.0,0.0,72,0.00,,,0.00,WUHU216HW,2013-03-15 10:23:00,
2013-03-15 02:28:00,14.7,7.3,29.43,ENE,68,0.0,0.0,72,0.00,,,0.00,WUHU216HW,2013-03-15 10:28:00,
2013-03-15 02:33:00,14.1,6.8,29.44,ENE,68,0.0,0.0,72,0.00,,,0.00,WUHU216HW,2013-03-15 10:33:00,
2013-03-15 02:38:00,14.1,6.8,29.44,ENE,68,0.0,0.0,72,0.00,,,0.00,WUHU216HW,2013-03-15 10:38:00,
2013-03-15 02:43:00,13.8,6.4,29.44,ENE,68,0.0,0.0,72,0.00,,,0.00,WUHU216HW,2013-03-15 10:43:00,
2013-03-15 02:48:00,13.2,5.9,29.43,ENE,68,0.0,0.0,72,0.00,,,0.00,WUHU216HW,2013-03-15 10:48:00,
2013-03-15 02:53:00,13.2,5.9,29.43,ENE,68,0.0,0.0,72,0.00,,,0.00,WUHU216HW,2013-03-15 10:53:00,
2013-03-15 02:58:00,13.1,6.0,29.43,ENE,68,0.0,0.0,73,0.00,,,0.00,WUHU216HW,2013-03-15 10:58:00,
2013-03-15 03:03:00,12.7,5.3,29.43,ENE,68,0.0,0.0,72,0.00,,,0.00,WUHU216HW,2013-03-15 11:03:00,
2013-03-15 03:08:00,12.7,5.3,29.43,ENE,68,0.0,0.0,72,0.00,,,0.00,WUHU216HW,2013-03-15 11:08:00,
2013-03-15 03:13:00,12.5,5.5,29.42,ENE,68,0.0,0.0,73,0.00,,,0.00,WUHU216HW,2013-03-15 11:13:00,
2013-03-15 03:18:00,12.2,5.1,29.42,ENE,68,0.0,0.0,73,0.00,,,0.00,WUHU216HW,2013-03-15 11:18:00,
2013-03-15 03:23:00,12.0,4.9,29.42,ENE,68,0.0,0.0,73,0.00,,,0.00,WUHU216HW,2013-03-15 11:23:00,
2013-03-15 03:28:00,12.0,4.9,29.42,ENE,68,0.0,0.0,73,0.00,,,0.00,WUHU216HW,2013-03-15 11:28:00,
2013-03-15 03:33:00,11.8,4.7,29.42,ENE,68,0.0,0.0,73,0.00,,,0.00,WUHU216HW,2013-03-15 11:33:00,
2013-03-15 03:38:00,11.4,4.4,29.42,ENE,68,0.0,0.0,73,0.00,,,0.00,WUHU216HW,2013-03-15 11:38:00,
2013-03-15 03:43:00,11.3,4.2,29.42,ENE,68,0.0,0.0,73,0.00,,,0.00,WUHU216HW,2013-03-15 11:43:00,
2013-03-15 03:48:00,11.1,4.3,29.42,ENE,68,0.0,0.0,74,0.00,,,0.00,WUHU216HW,2013-03-15 11:48:00,
2013-03-15 03:53:00,10.9,4.1,29.42,ENE,68,0.0,0.0,74,0.00,,,0.00,WUHU216HW,2013-03-15 11:53:00,
2013-03-15 03:58:00,10.5,3.8,29.41,ENE,68,0.0,0.0,74,0.00,,,0.00,WUHU216HW,2013-03-15 11:58:00,
2013-03-15 04:03:00,10.2,3.4,29.41,ENE,68,0.0,0.0,74,0.00,,,0.00,WUHU216HW,2013-03-15 12:03:00,
2013-03-15 04:08:00,10.0,3.3,29.41,ENE,68,0.0,0.0,74,0.00,,,0.00,WUHU216HW,2013-03-15 12:08:00,
2013-03-15 04:13:00,9.6,2.9,29.41,ENE,68,0.0,0.0,74,0.00,,,0.00,WUHU216HW,2013-03-15 12:13:00,
2013-03-15 04:18:00,9.5,2.8,29.41,ENE,68,0.0,0.0,74,0.00,,,0.00,WUHU216HW,2013-03-15 12:18:00,
2013-03-15 04:23:00,9.3,2.6,29.41,ENE,68,0.0,0.0,74,0.00,,,0.00,WUHU216HW,2013-03-15 12:23:00,
2013-03-15 04:28:00,9.1,2.4,29.41,ENE,68,0.0,0.0,74,0.00,,,0.00,WUHU216HW,2013-03-15 12:28:00,
2013-03-15 04:33:00,8.7,2.4,29.41,ENE,68,0.0,0.0,75,0.00,,,0.00,WUHU216HW,2013-03-15 12:33:00,
2013-03-15 04:38:00,8.4,2.1,29.41,ENE,68,0.0,0.0,75,0.00,,,0.00,WUHU216HW,2013-03-15 12:38:00,
2013-03-15 04:43:00,8.4,2.1,29.41,ENE,68,0.0,0.0,75,0.00,,,0.00,WUHU216HW,2013-03-15 12:43:00,
2013-03-15 04:48:00,8.2,1.9,29.40,ENE,68,0.0,0.0,75,0.00,,,0.00,WUHU216HW,2013-03-15 12:48:00,
2013-03-15 04:53:00,8.0,1.7,29.40,ENE,68,0.0,0.0,75,0.00,,,0.00,WUHU216HW,2013-03-15 12:53:00,
2013-03-15 04:58:00,7.8,1.5,29.41,ENE,68,0.0,0.0,75,0.00,,,0.00,WUHU216HW,2013-03-15 12:58:00,
2013-03-15 05:03:00,7.5,1.2,29.40,ENE,68,0.0,0.0,75,0.00,,,0.00,WUHU216HW,2013-03-15 13:03:00,
2013-03-15 05:08:00,7.5,1.5,29.40,ENE,68,0.0,0.0,76,0.00,,,0.00,WUHU216HW,2013-03-15 13:08:00,
2013-03-15 05:13:00,7.3,1.0,29.40,ENE,68,0.0,0.0,75,0.00,,,0.00,WUHU216HW,2013-03-15 13:13:00,
2013-03-15 05:18:00,7.1,0.8,29.40,ENE,68,0.0,0.0,75,0.00,,,0.00,WUHU216HW,2013-03-15 13:18:00,
2013-03-15 05:23:00,6.9,0.6,29.40,ENE,68,0.0,0.0,75,0.00,,,0.00,WUHU216HW,2013-03-15 13:23:00,
2013-03-15 05:28:00,6.6,0.3,29.41,ENE,68,0.0,0.0,75,0.00,,,0.00,WUHU216HW,2013-03-15 13:28:00,
2013-03-15 05:33:00,6.2,0.0,29.40,ENE,68,0.0,0.0,75,0.00,,,0.00,WUHU216HW,2013-03-15 13:33:00,
2013-03-15 05:38:00,6.0,-0.2,29.40,ENE,68,0.0,0.0,75,0.00,,,0.00,WUHU216HW,2013-03-15 13:38:00,
2013-03-15 05:44:00,5.7,-0.5,29.40,ENE,68,0.0,0.0,75,0.00,,,0.00,WUHU216HW,2013-03-15 13:44:00,
2013-03-15 05:49:00,5.3,-0.9,29.40,ENE,68,0.0,0.0,75,0.00,,,0.00,WUHU216HW,2013-03-15 13:49:00,
2013-03-15 05:54:00,5.1,-1.1,29.40,ENE,68,0.0,0.0,75,0.00,,,0.00,WUHU216HW,2013-03-15 13:54:00,
2013-03-15 05:59:00,4.8,-1.1,29.40,ENE,68,0.0,0.0,76,0.00,,,0.00,WUHU216HW,2013-03-15 13:59:00,
2013-03-15 06:04:00,4.6,-1.6,29.40,ENE,68,0.0,0.0,75,0.00,,,0.00,WUHU216HW,2013-03-15 14:04:00,
2013-03-15 06:09:00,4.2,-1.9,29.40,ENE,68,0.0,0.0,75,0.00,,,0.00,WUHU216HW,2013-03-15 14:09:00,
2013-03-15 06:14:00,4.1,-2.1,29.39,ENE,68,0.0,0.0,75,0.00,,,0.00,WUHU216HW,2013-03-15 14:14:00,
2013-03-15 06:19:00,3.9,-2.3,29.40,ENE,68,0.0,0.0,75,0.00,,,0.00,WUHU216HW,2013-03-15 14:19:00,
2013-03-15 06:24:00,3.7,-2.2,29.40,ENE,68,0.0,0.0,76,0.00,,,0.00,WUHU216HW,2013-03-15 14:24:00,
2013-03-15 06:29:00,3.5,-2.3,29.39,ENE,68,0.0,0.0,76,0.00,,,0.00,WUHU216HW,2013-03-15 14:29:00,
2013-03-15 06:34:00,3.3,-2.5,29.39,ENE,68,0.0,0.0,76,0.00,,,0.00,WUHU216HW,2013-03-15 14:34:00,
2013-03-15 06:39:00,3.0,-2.9,29.39,ENE,68,0.0,0.0,76,0.00,,,0.00,WUHU216HW,2013-03-15 14:39:00,
2013-03-15 06:44:00,3.0,-2.9,29.39,ENE,68,0.0,0.0,76,0.00,,,0.00,WUHU216HW,2013-03-15 14:44:00,
2013-03-15 06:49:00,2.8,-3.1,29.39,ENE,68,0.0,0.0,76,0.00,,,0.00,WUHU216HW,2013-03-15 14:49:00,
2013-03-15 06:54:00,2.4,-3.4,29.39,ENE,68,0.0,0.0,76,0.00,,,0.00,WUHU216HW,2013-03-15 14:54:00,
2013-03-15 06:59:00,2.4,-3.4,29.39,ENE,68,0.0,0.0,76,0.00,,,0.00,WUHU216HW,2013-03-15 14:59:00,
2013-03-15 07:04:00,2.1,-3.8,29.39,ENE,68,0.0,0.0,76,0.00,,,0.00,WUHU216HW,2013-03-15 15:04:00,
2013-03-15 07:09:00,2.1,-3.8,29.39,ENE,68,0.0,0.0,76,0.00,,,0.00,WUHU216HW,2013-03-15 15:09:00,
2013-03-15 07:14:00,1.9,-4.0,29.39,ENE,68,0.0,0.0,76,0.00,,,0.00,WUHU216HW,2013-03-15 15:14:00,
2013-03-15 07:19:00,1.7,-4.1,29.39,ENE,68,0.0,0.0,76,0.00,,,0.00,WUHU216HW,2013-03-15 15:19:00,
2013-03-15 07:24:00,1.5,-4.3,29.39,ENE,68,0.0,0.0,76,0.00,,,0.00,WUHU216HW,2013-03-15 15:24:00,
2013-03-15 07:29:00,1.4,-4.5,29.39,ENE,68,0.0,0.0,76,0.00,,,0.00,WUHU216HW,2013-03-15 15:29:00,
2013-03-15 07:34:00,1.2,-4.7,29.39,ENE,68,0.0,0.0,76,0.00,,,0.00,WUHU216HW,2013-03-15 15:34:00,
2013-03-15 07:39:00,1.0,-4.8,29.39,ENE,68,0.0,0.0,76,0.00,,,0.00,WUHU216HW,2013-03-15 15:39:00,
2013-03-15 07:44:00,0.6,-5.0,29.39,ENE,68,0.0,0.0,76,0.00,,,0.00,WUHU216HW,2013-03-15 15:44:00,
2013-03-15 07:49:00,0.6,-5.2,29.38,ENE,68,0.0,0.0,76,0.00,,,0.00,WUHU216HW,2013-03-15 15:49:00,
2013-03-15 07:54:00,0.5,-5.3,29.38,ENE,68,0.0,0.0,76,0.00,,,0.00,WUHU216HW,2013-03-15 15:54:00,
2013-03-15 07:59:00,0.3,-5.5,29.38,ENE,68,0.0,0.0,76,0.00,,,0.00,WUHU216HW,2013-03-15 15:59:00,
2013-03-15 08:04:00,0.3,-5.5,29.38,ENE,68,0.0,0.0,76,0.00,,,0.00,WUHU216HW,2013-03-15 16:04:00,
2013-03-15 08:09:00,0.1,-5.7,29.38,ENE,68,0.0,0.0,76,0.00,,,0.00,WUHU216HW,2013-03-15 16:09:00,
2013-03-15 08:14:00,0.1,-5.7,29.38,ENE,68,0.0,0.0,76,0.00,,,0.00,WUHU216HW,2013-03-15 16:14:00,
2013-03-15 08:19:00,0.1,-5.7,29.38,ENE,68,0.0,0.0,76,0.00,,,0.00,WUHU216HW,2013-03-15 16:19:00,
2013-03-15 08:24:00,0.0,-5.9,29.38,ENE,68,0.0,0.0,76,0.00,,,0.00,WUHU216HW,2013-03-15 16:24:00,
2013-03-15 08:29:00,0.0,-5.9,29.38,ENE,68,0.0,0.0,76,0.00,,,0.00,WUHU216HW,2013-03-15 16:29:00,
2013-03-15 08:34:00,-0.2,-6.0,29.38,ENE,68,0.0,0.0,76,0.00,,,0.00,WUHU216HW,2013-03-15 16:34:00,
2013-03-15 08:39:00,-0.2,-6.0,29.38,ENE,68,0.0,0.0,76,0.00,,,0.00,WUHU216HW,2013-03-15 16:39:00,
2013-03-15 08:44:00,-0.2,-6.0,29.38,ENE,68,0.0,0.0,76,0.00,,,0.00,WUHU216HW,2013-03-15 16:44:00,
2013-03-15 08:49:00,-0.2,-6.0,29.37,ENE,68,0.0,0.0,76,0.00,,,0.00,WUHU216HW,2013-03-15 16:49:00,
2013-03-15 08:54:00,-0.2,-6.0,29.37,ENE,68,0.0,0.0,76,0.00,,,0.00,WUHU216HW,2013-03-15 16:54:00,
2013-03-15 08:59:00,-0.2,-6.0,29.37,ENE,68,0.0,0.0,76,0.00,,,0.00,WUHU216HW,2013-03-15 16:59:00,
2013-03-15 09:04:00,-0.2,-6.0,29.37,ENE,68,0.0,0.0,76,0.00,,,0.00,WUHU216HW,2013-03-15 17:04:00,
2013-03-15 09:09:00,0.0,-5.9,29.38,ENE,68,0.0,0.0,76,0.00,,,0.00,WUHU216HW,2013-03-15 17:09:00,
2013-03-15 09:14:00,0.1,-5.7,29.37,ENE,68,0.0,0.0,76,0.00,,,0.00,WUHU216HW,2013-03-15 17:14:00,
2013-03-15 09:19:00,0.3,-5.5,29.37,ENE,68,0.0,0.0,76,0.00,,,0.00,WUHU216HW,2013-03-15 17:19:00,
2013-03-15 09:24:00,0.6,-5.2,29.37,ENE,68,0.0,0.0,76,0.00,,,0.00,WUHU216HW,2013-03-15 17:24:00,
2013-03-15 09:29:00,1.0,-4.6,29.37,ENE,68,0.0,0.0,77,0.00,,,0.00,WUHU216HW,2013-03-15 17:29:00,
2013-03-15 09:34:00,1.4,-4.2,29.37,ENE,68,0.0,0.0,77,0.00,,,0.00,WUHU216HW,2013-03-15 17:34:00,
2013-03-15 09:39:00,1.7,-3.9,29.37,East,90,0.0,0.0,77,0.00,,,0.00,WUHU216HW,2013-03-15 17:39:00,
2013-03-15 09:45:00,1.9,-3.7,29.37,East,90,0.0,0.0,77,0.00,,,0.00,WUHU216HW,2013-03-15 17:45:00,
2013-03-15 09:50:00,2.3,-3.3,29.37,East,90,0.0,0.0,77,0.00,,,0.00,WUHU216HW,2013-03-15 17:50:00,
2013-03-15 09:55:00,2.8,-2.8,29.36,East,90,0.0,0.0,77,0.00,,,0.00,WUHU216HW,2013-03-15 17:55:00,
2013-03-15 10:00:00,3.5,-1.8,29.36,East,90,0.0,0.0,78,0.00,,,0.00,WUHU216HW,2013-03-15 18:00:00,
2013-03-15 10:05:00,4.6,-0.5,29.37,East,90,0.0,0.0,79,0.00,,,0.00,WUHU216HW,2013-03-15 18:05:00,
2013-03-15 10:10:00,7.7,3.0,29.37,East,90,0.0,0.0,81,0.00,,,0.00,WUHU216HW,2013-03-15 18:10:00,
2013-03-15 10:15:00,10.7,5.9,29.36,East,90,0.0,0.0,81,0.00,,,0.00,WUHU216HW,2013-03-15 18:15:00,
2013-03-15 10:20:00,11.4,6.4,29.36,ENE,68,0.0,0.0,80,0.00,,,0.00,WUHU216HW,2013-03-15 18:20:00,
2013-03-15 10:25:00,11.4,5.2,29.36,ENE,68,0.0,0.0,76,0.00,,,0.00,WUHU216HW,2013-03-15 18:25:00,
2013-03-15 10:30:00,11.4,5.2,29.36,ENE,68,0.0,0.0,76,0.00,,,0.00,WUHU216HW,2013-03-15 18:30:00,
2013-03-15 10:35:00,11.6,5.4,29.36,ENE,68,0.0,0.0,76,0.00,,,0.00,WUHU216HW,2013-03-15 18:35:00,
2013-03-15 10:40:00,11.4,5.2,29.36,ENE,68,0.0,0.0,76,0.00,,,0.00,WUHU216HW,2013-03-15 18:40:00,
2013-03-15 10:45:00,11.6,5.4,29.36,ENE,68,0.0,0.0,76,0.00,,,0.00,WUHU216HW,2013-03-15 18:45:00,
2013-03-15 10:50:00,11.8,5.9,29.36,ENE,68,0.0,0.0,77,0.00,,,0.00,WUHU216HW,2013-03-15 18:50:00,
2013-03-15 10:55:00,13.8,8.2,29.36,ENE,68,0.0,0.0,78,0.00,,,0.00,WUHU216HW,2013-03-15 18:55:00,
2013-03-15 11:00:00,15.4,9.7,29.36,ENE,68,0.0,0.0,78,0.00,,,0.00,WUHU216HW,2013-03-15 19:00:00,
2013-03-15 11:05:00,15.9,9.6,29.36,ENE,68,0.0,0.0,76,0.00,,,0.00,WUHU216HW,2013-03-15 19:05:00,
2013-03-15 11:10:00,16.5,10.2,29.35,ENE,68,0.0,0.0,76,0.00,,,0.00,WUHU216HW,2013-03-15 19:10:00,
2013-03-15 11:15:00,17.2,10.8,29.36,NNE,23,0.0,0.0,76,0.00,,,0.00,WUHU216HW,2013-03-15 19:15:00,
2013-03-15 11:20:00,17.9,11.5,29.35,NNE,23,0.0,0.0,76,0.00,,,0.00,WUHU216HW,2013-03-15 19:20:00,
2013-03-15 11:25:00,20.8,14.3,29.35,NE,45,0.0,1.1,76,0.00,,,0.00,WUHU216HW,2013-03-15 19:25:00,
2013-03-15 11:30:00,22.2,15.2,29.35,NNE,23,2.9,7.8,74,0.00,,,0.00,WUHU216HW,2013-03-15 19:30:00,
2013-03-15 11:35:00,24.4,16.0,29.34,NNE,23,2.4,7.8,70,0.00,,,0.00,WUHU216HW,2013-03-15 19:35:00,
2013-03-15 11:40:00,25.5,16.3,29.35,North,0,7.3,7.3,68,0.00,,,0.00,WUHU216HW,2013-03-15 19:40:00,
2013-03-15 11:45:00,26.4,16.5,29.34,NNE,23,0.0,7.3,66,0.00,,,0.00,WUHU216HW,2013-03-15 19:45:00,
2013-03-15 11:50:00,26.7,15.4,29.34,NE,45,1.5,1.5,62,0.00,,,0.00,WUHU216HW,2013-03-15 19:50:00,
2013-03-15 11:55:00,26.4,15.0,29.35,NNE,23,2.0,2.0,62,0.00,,,0.00,WUHU216HW,2013-03-15 19:55:00,
2013-03-15 12:00:00,26.2,14.5,29.34,ENE,68,0.0,3.1,61,0.00,,,0.00,WUHU216HW,2013-03-15 20:00:00,
2013-03-15 12:05:00,25.7,13.7,29.35,NNE,23,0.0,3.1,60,0.00,,,0.00,WUHU216HW,2013-03-15 20:05:00,
2013-03-15 12:10:00,26.0,14.0,29.34,NE,45,2.2,2.6,60,0.00,,,0.00,WUHU216HW,2013-03-15 20:10:00,
2013-03-15 12:15:00,26.4,13.9,29.34,North,0,0.0,6.0,59,0.00,,,0.00,WUHU216HW,2013-03-15 20:15:00,
2013-03-15 12:20:00,28.0,15.1,29.34,NE,45,4.0,6.0,58,0.00,,,0.00,WUHU216HW,2013-03-15 20:20:00,
2013-03-15 12:25:00,28.9,15.1,29.34,NE,45,2.0,4.0,56,0.00,,,0.00,WUHU216HW,2013-03-15 20:25:00,
2013-03-15 12:30:00,29.1,14.9,29.34,ENE,68,0.0,4.0,55,0.00,,,0.00,WUHU216HW,2013-03-15 20:30:00,
2013-03-15 12:35:00,30.3,16.0,29.34,NE,45,0.0,4.0,55,0.00,,,0.00,WUHU216HW,2013-03-15 20:35:00,
2013-03-15 12:41:00,30.5,15.3,29.33,NE,45,2.0,3.3,53,0.00,,,0.00,WUHU216HW,2013-03-15 20:41:00,
2013-03-15 12:46:00,29.8,14.1,29.33,ENE,68,0.0,2.0,52,0.00,,,0.00,WUHU216HW,2013-03-15 20:46:00,
2013-03-15 12:51:00,30.7,15.5,29.33,ENE,68,2.9,2.9,53,0.00,,,0.00,WUHU216HW,2013-03-15 20:51:00,
2013-03-15 12:56:00,33.2,17.8,29.33,NE,45,0.0,2.9,53,0.00,,,0.00,WUHU216HW,2013-03-15 20:56:00,
2013-03-15 13:02:00,37.9,20.4,29.33,NE,45,0.0,2.2,49,0.00,,,0.00,WUHU216HW,2013-03-15 21:02:00,
2013-03-15 13:07:00,40.2,21.5,29.33,NNW,338,0.0,2.2,47,0.00,,,0.00,WUHU216HW,2013-03-15 21:07:00,
2013-03-15 13:12:00,43.3,23.3,29.33,NE,45,0.0,0.0,45,0.00,,,0.00,WUHU216HW,2013-03-15 21:12:00,
2013-03-15 13:17:00,44.7,23.5,29.33,NE,45,3.3,3.3,43,0.00,,,0.00,WUHU216HW,2013-03-15 21:17:00,
2013-03-15 13:22:00,45.6,23.2,29.33,NNE,23,4.0,4.0,41,0.00,,,0.00,WUHU216HW,2013-03-15 21:22:00,
2013-03-15 13:27:00,46.9,23.1,29.32,NE,45,1.5,4.0,39,0.00,,,0.00,WUHU216HW,2013-03-15 21:27:00,
2013-03-15 13:32:00,47.4,22.3,29.32,NE,45,4.4,6.4,37,0.00,,,0.00,WUHU216HW,2013-03-15 21:32:00,
2013-03-15 13:37:00,47.1,22.0,29.33,NE,45,0.0,6.4,37,0.00,,,0.00,WUHU216HW,2013-03-15 21:37:00,
2013-03-15 13:42:00,47.6,21.8,29.33,ENE,68,0.6,3.3,36,0.00,,,0.00,WUHU216HW,2013-03-15 21:42:00,
2013-03-15 13:47:00,48.0,22.1,29.33,North,0,6.2,6.2,36,0.00,,,0.00,WUHU216HW,2013-03-15 21:47:00,
2013-03-15 13:52:00,49.4,22.7,29.33,NE,45,2.4,6.2,35,0.00,,,0.00,WUHU216HW,2013-03-15 21:52:00,
2013-03-15 13:57:00,50.5,24.3,29.33,NNE,23,0.0,2.4,36,0.00,,,0.00,WUHU216HW,2013-03-15 21:57:00,
2013-03-15 14:02:00,51.6,23.9,29.33,NNE,23,0.0,3.1,34,0.00,,,0.00,WUHU216HW,2013-03-15 22:02:00,
2013-03-15 14:07:00,52.8,24.4,29.33,North,0,4.6,4.6,33,0.00,,,0.00,WUHU216HW,2013-03-15 22:07:00,
2013-03-15 14:13:00,53.2,23.3,29.33,NE,45,4.4,4.6,31,0.00,,,0.00,WUHU216HW,2013-03-15 22:13:00,
2013-03-15 14:18:00,52.5,23.3,29.33,NE,45,3.5,4.6,32,0.00,,,0.00,WUHU216HW,2013-03-15 22:18:00,
2013-03-15 14:23:00,53.7,23.8,29.32,ENE,68,0.0,3.5,31,0.00,,,0.00,WUHU216HW,2013-03-15 22:23:00,
2013-03-15 14:28:00,53.9,23.9,29.32,NE,45,0.0,3.5,31,0.00,,,0.00,WUHU216HW,2013-03-15 22:28:00,
2013-03-15 14:33:00,53.7,23.1,29.32,NE,45,4.2,4.2,30,0.00,,,0.00,WUHU216HW,2013-03-15 22:33:00,
2013-03-15 14:38:00,53.2,21.7,29.32,NNE,23,6.4,32.4,29,0.00,,,0.00,WUHU216HW,2013-03-15 22:38:00,
2013-03-15 14:43:00,52.7,21.2,29.32,ENE,68,1.3,32.4,29,0.00,,,0.00,WUHU216HW,2013-03-15 22:43:00,
2013-03-15 14:48:00,52.8,21.3,29.32,NE,45,0.0,7.3,29,0.00,,,0.00,WUHU216HW,2013-03-15 22:48:00,
2013-03-15 14:53:00,52.8,20.4,29.32,NE,45,0.0,7.3,28,0.00,,,0.00,WUHU216HW,2013-03-15 22:53:00,
2013-03-15 14:58:00,52.5,20.1,29.33,NNE,23,0.0,1.5,28,0.00,,,0.00,WUHU216HW,2013-03-15 22:58:00,
2013-03-15 15:03:00,52.3,19.9,29.33,NNE,23,0.6,0.6,28,0.00,,,0.00,WUHU216HW,2013-03-15 23:03:00,
2013-03-15 15:08:00,51.0,18.8,29.32,North,0,5.3,5.3,28,0.00,,,0.00,WUHU216HW,2013-03-15 23:08:00,
2013-03-15 15:13:00,47.8,16.1,29.32,ENE,68,0.0,5.3,28,0.00,,,0.00,WUHU216HW,2013-03-15 23:13:00,
2013-03-15 15:18:00,42.6,11.5,29.32,NE,45,1.7,5.3,29,0.00,,,0.00,WUHU216HW,2013-03-15 23:18:00,
2013-03-15 15:23:00,40.1,10.3,29.32,NE,45,0.0,5.3,29,0.00,,,0.00,WUHU216HW,2013-03-15 23:23:00,
2013-03-15 15:28:00,38.3,9.5,29.32,NE,45,1.1,1.7,30,0.00,,,0.00,WUHU216HW,2013-03-15 23:28:00,
2013-03-15 15:33:00,36.3,8.2,29.32,NE,45,1.3,5.5,30,0.00,,,0.00,WUHU216HW,2013-03-15 23:33:00,
2013-03-15 15:38:00,35.4,8.2,29.32,North,0,5.5,5.5,32,0.00,,,0.00,WUHU216HW,2013-03-15 23:38:00,
2013-03-15 15:43:00,34.8,7.8,29.32,North,0,0.0,5.5,32,0.00,,,0.00,WUHU216HW,2013-03-15 23:43:00,
2013-03-15 15:48:00,34.3,8.0,29.32,ENE,68,0.0,5.5,33,0.00,,,0.00,WUHU216HW,2013-03-15 23:48:00,
2013-03-15 15:53:00,34.3,8.6,29.32,NNE,23,5.5,5.5,34,0.00,,,0.00,WUHU216HW,2013-03-15 23:53:00,
2013-03-15 15:58:00,34.1,8.5,29.32,NE,45,0.0,6.4,34,0.00,,,0.00,WUHU216HW,2013-03-15 23:58:00,
2013-03-15 16:03:00,33.9,8.3,29.33,NNE,23,0.0,6.4,34,0.00,,,0.00,WUHU216HW,2013-03-16 00:03:00,
2013-03-15 16:08:00,33.6,8.7,29.32,NNE,23,0.0,1.3,35,0.00,,,0.00,WUHU216HW,2013-03-16 00:08:00,
2013-03-15 16:13:00,33.6,8.7,29.32,NE,45,0.0,1.5,35,0.00,,,0.00,WUHU216HW,2013-03-16 00:13:00,
2013-03-15 16:19:00,33.4,8.5,29.32,NE,45,3.3,3.3,35,0.00,,,0.00,WUHU216HW,2013-03-16 00:19:00,
2013-03-15 16:24:00,33.2,8.3,29.33,NE,45,0.0,3.3,35,0.00,,,0.00,WUHU216HW,2013-03-16 00:24:00,
2013-03-15 16:29:00,33.0,8.8,29.32,NE,45,5.3,5.3,36,0.00,,,0.00,WUHU216HW,2013-03-16 00:29:00,
2013-03-15 16:35:00,33.0,8.8,29.32,NE,45,4.0,5.3,36,0.00,,,0.00,WUHU216HW,2013-03-16 00:35:00,
2013-03-15 16:40:00,32.7,8.5,29.32,NNE,23,2.6,6.4,36,0.00,,,0.00,WUHU216HW,2013-03-16 00:40:00,
2013-03-15 16:45:00,32.7,8.5,29.33,NNE,23,3.5,6.4,36,0.00,,,0.00,WUHU216HW,2013-03-16 00:45:00,
2013-03-15 16:50:00,32.5,8.9,29.33,NE,45,0.0,3.5,37,0.00,,,0.00,WUHU216HW,2013-03-16 00:50:00,
2013-03-15 16:55:00,32.5,8.3,29.33,NNE,23,2.2,5.3,36,0.00,,,0.00,WUHU216HW,2013-03-16 00:55:00,
2013-03-15 17:00:00,32.5,8.3,29.34,North,0,6.0,6.0,36,0.00,,,0.00,WUHU216HW,2013-03-16 01:00:00,
2013-03-15 17:05:00,32.3,8.3,29.34,NE,45,0.0,6.0,36,0.00,,,0.00,WUHU216HW,2013-03-16 01:05:00,
2013-03-15 17:10:00,32.1,8.6,29.34,NNE,23,4.4,4.4,37,0.00,,,0.00,WUHU216HW,2013-03-16 01:10:00,
2013-03-15 17:15:00,32.1,8.0,29.34,NNE,23,1.3,4.4,36,0.00,,,0.00,WUHU216HW,2013-03-16 01:15:00,
2013-03-15 17:20:00,32.1,8.0,29.34,NE,45,0.0,5.1,36,0.00,,,0.00,WUHU216HW,2013-03-16 01:20:00,
2013-03-15 17:25:00,32.3,8.8,29.34,NNE,23,3.1,5.1,37,0.00,,,0.00,WUHU216HW,2013-03-16 01:25:00,
2013-03-15 17:30:00,32.3,8.8,29.34,NE,45,3.1,3.1,37,0.00,,,0.00,WUHU216HW,2013-03-16 01:30:00,
2013-03-15 17:35:00,32.1,8.6,29.34,NNE,23,2.6,3.1,37,0.00,,,0.00,WUHU216HW,2013-03-16 01:35:00,
2013-03-15 17:40:00,32.0,8.5,29.34,NNE,23,4.0,4.0,37,0.00,,,0.00,WUHU216HW,2013-03-16 01:40:00,
2013-03-15 17:45:00,31.8,8.3,29.34,NE,45,2.9,4.0,37,0.00,,,0.00,WUHU216HW,2013-03-16 01:45:00,
2013-03-15 17:50:00,31.8,8.3,29.34,NNE,23,4.4,4.4,37,0.00,,,0.00,WUHU216HW,2013-03-16 01:50:00,
2013-03-15 17:55:00,31.8,8.3,29.35,NE,45,0.0,4.4,37,0.00,,,0.00,WUHU216HW,2013-03-16 01:55:00,
2013-03-15 18:00:00,31.6,8.1,29.34,NE,45,4.4,4.4,37,0.00,,,0.00,WUHU216HW,2013-03-16 02:00:00,
2013-03-15 18:05:00,31.6,8.1,29.34,NE,45,0.0,4.4,37,0.00,,,0.00,WUHU216HW,2013-03-16 02:05:00,
2013-03-15 18:10:00,31.6,8.1,29.35,NNE,23,0.0,4.4,37,0.00,,,0.00,WUHU216HW,2013-03-16 02:10:00,
2013-03-15 18:15:00,31.6,8.1,29.35,NE,45,1.5,1.5,37,0.00,,,0.00,WUHU216HW,2013-03-16 02:15:00,
2013-03-15 18:20:00,31.2,7.8,29.35,NNE,23,0.0,1.5,37,0.00,,,0.00,WUHU216HW,2013-03-16 02:20:00,
2013-03-15 18:25:00,31.2,7.8,29.35,NNE,23,0.0,1.5,37,0.00,,,0.00,WUHU216HW,2013-03-16 02:25:00,
2013-03-15 18:30:00,31.2,7.8,29.35,NE,45,0.0,0.0,37,0.00,,,0.00,WUHU216HW,2013-03-16 02:30:00,
2013-03-15 18:36:00,31.1,7.7,29.35,NE,45,0.0,0.0,37,0.00,,,0.00,WUHU216HW,2013-03-16 02:36:00,
2013-03-15 18:41:00,30.9,7.5,29.35,NNE,23,0.0,0.0,37,0.00,,,0.00,WUHU216HW,2013-03-16 02:41:00,
2013-03-15 18:46:00,30.7,8.0,29.35,NE,45,0.0,2.4,38,0.00,,,0.00,WUHU216HW,2013-03-16 02:46:00,
2013-03-15 18:51:00,30.3,7.6,29.35,NE,45,0.0,2.4,38,0.00,,,0.00,WUHU216HW,2013-03-16 02:51:00,
2013-03-15 18:56:00,30.3,7.6,29.35,NE,45,0.0,0.0,38,0.00,,,0.00,WUHU216HW,2013-03-16 02:56:00,
2013-03-15 19:01:00,30.0,7.3,29.35,NE,45,0.0,0.0,38,0.00,,,0.00,WUHU216HW,2013-03-16 03:01:00,
2013-03-15 19:06:00,29.8,7.1,29.35,NE,45,0.0,0.0,38,0.00,,,0.00,WUHU216HW,2013-03-16 03:06:00,
2013-03-15 19:11:00,29.6,7.0,29.35,NE,45,0.0,0.0,38,0.00,,,0.00,WUHU216HW,2013-03-16 03:11:00,
2013-03-15 19:16:00,29.3,7.3,29.35,NNE,23,0.0,0.0,39,0.00,,,0.00,WUHU216HW,2013-03-16 03:16:00,
2013-03-15 19:21:00,29.1,7.1,29.35,NNE,23,0.0,0.0,39,0.00,,,0.00,WUHU216HW,2013-03-16 03:21:00,
2013-03-15 19:26:00,28.5,6.6,29.35,NNE,23,0.0,0.0,39,0.00,,,0.00,WUHU216HW,2013-03-16 03:26:00,
2013-03-15 19:31:00,28.2,6.3,29.35,NE,45,0.0,0.0,39,0.00,,,0.00,WUHU216HW,2013-03-16 03:31:00,
2013-03-15 19:36:00,28.0,6.8,29.35,NE,45,0.0,0.0,40,0.00,,,0.00,WUHU216HW,2013-03-16 03:36:00,
2013-03-15 19:41:00,27.6,6.5,29.35,NE,45,0.0,0.0,40,0.00,,,0.00,WUHU216HW,2013-03-16 03:41:00,
2013-03-15 19:46:00,27.1,6.5,29.35,NE,45,0.0,0.0,41,0.00,,,0.00,WUHU216HW,2013-03-16 03:46:00,
2013-03-15 19:51:00,26.4,6.3,29.36,NE,45,0.0,0.0,42,0.00,,,0.00,WUHU216HW,2013-03-16 03:51:00,
2013-03-15 19:56:00,25.7,5.7,29.36,NE,45,0.0,0.0,42,0.00,,,0.00,WUHU216HW,2013-03-16 03:56:00,
2013-03-15 20:00:00,25.5,5.5,29.36,NE,45,0.0,0.0,42,0.00,,,0.00,WUHU216HW,2013-03-16 04:00:00,
2013-03-15 20:05:00,24.9,5.5,29.36,NE,45,0.0,0.0,43,0.00,,,0.00,WUHU216HW,2013-03-16 04:05:00,
2013-03-15 20:10:00,24.4,5.5,29.37,NE,45,0.0,0.0,44,0.00,,,0.00,WUHU216HW,2013-03-16 04:10:00,
2013-03-15 20:15:00,23.9,5.0,29.37,NE,45,0.0,0.0,44,0.00,,,0.00,WUHU216HW,2013-03-16 04:15:00,
2013-03-15 20:20:00,23.7,5.3,29.37,NE,45,0.0,0.0,45,0.00,,,0.00,WUHU216HW,2013-03-16 04:20:00,
2013-03-15 20:25:00,23.5,5.2,29.37,NE,45,0.0,0.0,45,0.00,,,0.00,WUHU216HW,2013-03-16 04:25:00,
2013-03-15 20:30:00,23.3,5.5,29.37,NE,45,0.0,0.0,46,0.00,,,0.00,WUHU216HW,2013-03-16 04:30:00,
2013-03-15 20:35:00,23.0,5.2,29.37,NE,45,0.0,0.0,46,0.00,,,0.00,WUHU216HW,2013-03-16 04:35:00,
2013-03-15 20:40:00,22.8,5.5,29.38,NE,45,0.0,0.0,47,0.00,,,0.00,WUHU216HW,2013-03-16 04:40:00,
2013-03-15 20:45:00,22.1,5.3,29.38,NE,45,0.0,0.0,48,0.00,,,0.00,WUHU216HW,2013-03-16 04:45:00,
2013-03-15 20:50:00,21.7,4.9,29.38,NE,45,0.0,0.0,48,0.00,,,0.00,WUHU216HW,2013-03-16 04:50:00,